QPF
0.00 0.00 0.00 0.00 0.00 0.00 0.00 0.00 0.00 0.00 0.00 0.00 0.01 0.01 0.01 0.02 0.01 0.01 0.00 0.00 0.00 0.00 0.00 0.00 0.00 0.00 0.00 0.00 0.00 0.00 0.00 0.00 0.00 0.00 0.00 0.00 0.01 0.01
0.00 0.00 0.00 0.00 0.00 0.00 0.00 0.00 0.00 0.00 0.00 0.00 0.00 0.01 0.01 0.01 0.01 0.01 0.01 0.01 0.01 0.00 0.00 0.01 0.01 0.01 0.00 0.00 0.00 0.00 0.00 0.00 0.00 0.00 0.00 0.00 0.00 0.00
0.00 0.00 0.01 0.00 0.00 0.00 0.00 0.00 0.00 0.00 0.00 0.00 0.01 0.01 0.01 0.01 0.01 0.02 0.02 0.02 0.02 0.02 0.01 0.02 0.01 0.01 0.01 0.00 0.00 0.00 0.00 0.00 0.00 0.00 0.00 0.00 0.00 0.00
0.01 0.01 0.01 0.01 0.01 0.01 0.01 0.00 0.00 0.01 0.01 0.01 0.01 0.01 0.01 0.01 0.02 0.02 0.02 0.03 0.03 0.03 0.03 0.02 0.01 0.01 0.00 0.00 0.00 0.00 0.00 0.00 0.00 0.00 0.00 0.00 0.00 0.00
0.03 0.02 0.02 0.02 0.02 0.02 0.02 0.02 0.01 0.01 0.01 0.01 0.01 0.01 0.01 0.01 0.02 0.02 0.02 0.03 0.03 0.02 0.02 0.02 0.02 0.02 0.01 0.01 0.01 0.01 0.01 0.00 0.00 0.00 0.00 0.00 0.00 0.00
0.05 0.04 0.03 0.03 0.03 0.03 0.03 0.03 0.02 0.02 0.02 0.01 0.01 0.01 0.01 0.02 0.02 0.02 0.02 0.01 0.01 0.01 0.01 0.01 0.02 0.02 0.02 0.01 0.01 0.01 0.01 0.01 0.01 0.01 0.01 0.01 0.00 0.00
0.08 0.06 0.04 0.04 0.04 0.04 0.03 0.02 0.02 0.02 0.02 0.02 0.01 0.01 0.02 0.02 0.02 0.01 0.02 0.02 0.02 0.01 0.01 0.01 0.01 0.01 0.01 0.01 0.02 0.02 0.01 0.01 0.01 0.01 0.01 0.00 0.00 0.00
0.09 0.07 0.05 0.04 0.04 0.03 0.02 0.02 0.02 0.01 0.01 0.02 0.01 0.01 0.02 0.01 0.01 0.01 0.01 0.02 0.02 0.02 0.01 0.01 0.01 0.01 0.01 0.01 0.01 0.01 0.01 0.01 0.01 0.01 0.01 0.01 0.01 0.00
0.08 0.07 0.05 0.03 0.03 0.02 0.02 0.02 0.02 0.02 0.01 0.01 0.01 0.01 0.01 0.01 0.01 0.01 0.01 0.01 0.01 0.01 0.01 0.01 0.01 0.01 0.01 0.01 0.01 0.01 0.01 0.01 0.01 0.01 0.01 0.01 0.01 0.01
0.05 0.04 0.03 0.03 0.02 0.02 0.01 0.01 0.01 0.01 0.01 0.00 0.00 0.00 0.00 0.00 0.00 0.00 0.01 0.01 0.00 0.01 0.01 0.00 0.00 0.00 0.00 0.00 0.00 0.00 0.00 0.00 0.00 0.00 0.00 0.00 0.00 0.00
0.03 0.03 0.02 0.02 0.02 0.01 0.01 0.01 0.01 0.01 0.01 0.01 0.01 0.00 0.00 0.00 0.00 0.00 0.00 0.00 0.00 0.00 0.01 0.00 0.00 0.00 0.00 0.00 0.00 0.00 0.00 0.00 0.00 0.00 0.00 0.00 0.00 0.00
0.02 0.02 0.02 0.02 0.01 0.01 0.01 0.02 0.02 0.02 0.02 0.02 0.02 0.01 0.01 0.00 0.00 0.00 0.00 0.00 0.00 0.00 0.00 0.00 0.00 0.00 0.00 0.00 0.00 0.00 0.00 0.00 0.00 0.00 0.00 0.00 0.00 0.00
0.01 0.01 0.01 0.01 0.00 0.00 0.00 0.00 0.01 0.01 0.01 0.01 0.01 0.01 0.01 0.01 0.01 0.01 0.00 0.00 0.00 0.00 0.00 0.00 0.00 0.00 0.00 0.00 0.00 0.00 0.00 0.00 0.00 0.00 0.00 0.00 0.00 0.01
0.01 0.00 0.00 0.00 0.00 0.00 0.00 0.00 0.00 0.00 0.00 0.00 0.00 0.00 0.00 0.00 0.00 0.00 0.00 0.00 0.00 0.00 0.00 0.00 0.00 0.01 0.01 0.00 0.00 0.00 0.00 0.00 0.00 0.00 0.00 0.00 0.00 0.00
0.00 0.00 0.00 0.00 0.00 0.00 0.00 0.00 0.00 0.00 0.00 0.00 0.00 0.00 0.00 0.00 0.00 0.00 0.00 0.00 0.00 0.00 0.01 0.01 0.01 0.01 0.01 0.01 0.00 0.00 0.00 0.00 0.00 0.00 0.00 0.00 0.00 0.00
0.00 0.00 0.00 0.00 0.00 0.00 0.00 0.00 0.00 0.00 0.00 0.00 0.00 0.00 0.00 0.00 0.00 0.00 0.00 0.00 0.00 0.00 0.00 0.00 0.00 0.00 0.00 0.00 0.00 0.00 0.00 0.00 0.00 0.00 0.00 0.00 0.00 0.00
0.00 0.00 0.00 0.00 0.00 0.00 0.00 0.00 0.00 0.00 0.00 0.00 0.00 0.00 0.00 0.00 0.00 0.00 0.00 0.00 0.00 0.00 0.00 0.00 0.00 0.00 0.00 0.00 0.00 0.00 0.00 0.00 0.00 0.00 0.00 0.00 0.00 0.00
0.00 0.00 0.00 0.00 0.00 0.00 0.00 0.00 0.00 0.00 0.00 0.00 0.00 0.00 0.00 0.00 0.00 0.00 0.00 0.00 0.00 0.00 0.00 0.00 0.00 0.00 0.00 0.00 0.00 0.00 0.00 0.00 0.00 0.00 0.01 0.01 0.01 0.01
0.00 0.00 0.00 0.00 0.00 0.00 0.00 0.00 0.00 0.00 0.00 0.00 0.00 0.00 0.00 0.00 0.00 0.00 0.00 0.00 0.00 0.00 0.00 0.00 0.00 0.00 0.01 0.01 0.00 0.00 0.01 0.01 0.01 0.01 0.02 0.02 0.03 0.02
0.00 0.00 0.00 0.00 0.00 0.00 0.00 0.00 0.00 0.00 0.00 0.00 0.00 0.00 0.00 0.00 0.00 0.00 0.00 0.00 0.00 0.00 0.00 0.00 0.00 0.00 0.01 0.02 0.01 0.01 0.01 0.02 0.03 0.03 0.03 0.03 0.03 0.02
0.00 0.00 0.00 0.00 0.00 0.00 0.00 0.00 0.00 0.00 0.00 0.00 0.00 0.00 0.00 0.00 0.00 0.00 0.00 0.00 0.00 0.00 0.00 0.00 0.00 0.00 0.01 0.01 0.01 0.01 0.01 0.01 0.02 0.02 0.02 0.02 0.02 0.01
0.00 0.00 0.00 0.00 0.00 0.00 0.00 0.00 0.00 0.00 0.00 0.00 0.00 0.00 0.00 0.00 0.00 0.00 0.00 0.00 0.00 0.00 0.00 0.00 0.00 0.00 0.00 0.01 0.01 0.01 0.00 0.00 0.00 0.00 0.01 0.02 0.03 0.03
0.00 0.00 0.00 0.00 0.00 0.00 0.00 0.00 0.00 0.00 0.00 0.00 0.00 0.00 0.00 0.00 0.00 0.00 0.00 0.00 0.00 0.00 0.00 0.00 0.00 0.00 0.00 0.00 0.00 0.00 0.00 0.00 0.00 0.00 0.00 0.01 0.01 0.02
MSLP
1018.36 1018.66 1018.97 1019.26 1019.51 1019.67 1019.74 1019.70 1019.58 1019.40 1019.17 1018.92 1018.69 1018.47 1018.27 1018.11 1017.97 1017.87 1017.81 1017.79 1017.82 1017.89 1018.01 1018.15 1018.30 1018.44 1018.55 1018.62 1018.65 1018.64 1018.60 1018.56 1018.53 1018.51 1018.51 1018.52 1018.53 1018.53
1018.37 1018.64 1018.92 1019.18 1019.39 1019.52 1019.58 1019.56 1019.47 1019.33 1019.15 1018.97 1018.79 1018.62 1018.46 1018.30 1018.16 1018.03 1017.92 1017.84 1017.80 1017.81 1017.86 1017.94 1018.04 1018.15 1018.24 1018.30 1018.33 1018.32 1018.29 1018.24 1018.20 1018.16 1018.14 1018.13 1018.11 1018.08
1018.42 1018.68 1018.93 1019.16 1019.34 1019.45 1019.50 1019.49 1019.42 1019.33 1019.22 1019.11 1019.00 1018.89 1018.77 1018.64 1018.50 1018.35 1018.20 1018.06 1017.95 1017.88 1017.85 1017.86 1017.90 1017.95 1018.00 1018.03 1018.04 1018.02 1017.97 1017.92 1017.86 1017.80 1017.75 1017.71 1017.66 1017.60
1018.54 1018.81 1019.05 1019.26 1019.42 1019.51 1019.56 1019.55 1019.52 1019.47 1019.42 1019.37 1019.32 1019.27 1019.20 1019.10 1018.97 1018.81 1018.63 1018.44 1018.26 1018.10 1017.99 1017.91 1017.87 1017.85 1017.84 1017.82 1017.79 1017.74 1017.66 1017.58 1017.49 1017.41 1017.33 1017.25 1017.17 1017.09
1018.76 1019.05 1019.30 1019.51 1019.66 1019.75 1019.79 1019.80 1019.79 1019.77 1019.76 1019.75 1019.76 1019.75 1019.72 1019.65 1019.53 1019.36 1019.15 1018.92 1018.68 1018.45 1018.25 1018.09 1017.96 1017.86 1017.77 1017.69 1017.60 1017.49 1017.37 1017.25 1017.12 1017.00 1016.88 1016.77 1016.66 1016.54
1019.10 1019.41 1019.68 1019.90 1020.06 1020.16 1020.20 1020.22 1020.21 1020.21 1020.22 1020.23 1020.26 1020.27 1020.26 1020.21 1020.10 1019.93 1019.70 1019.44 1019.16 1018.87 1018.61 1018.37 1018.16 1017.97 1017.80 1017.64 1017.48 1017.30 1017.13 1016.95 1016.77 1016.59 1016.43 1016.28 1016.13 1015.98
1019.52 1019.86 1020.17 1020.41 1020.59 1020.69 1020.75 1020.76 1020.75 1020.75 1020.75 1020.76 1020.78 1020.80 1020.79 1020.74 1020.63 1020.46 1020.23 1019.96 1019.65 1019.33 1019.02 1018.72 1018.44 1018.18 1017.93 1017.69 1017.44 1017.19 1016.94 1016.70 1016.45 1016.22 1016.01 1015.81 1015.62 1015.44
1019.99 1020.38 1020.71 1020.98 1021.18 1021.30 1021.36 1021.37 1021.35 1021.32 1021.30 1021.28 1021.28 1021.28 1021.25 1021.19 1021.09 1020.92 1020.70 1020.43 1020.12 1019.79 1019.45 1019.12 1018.78 1018.46 1018.14 1017.82 1017.50 1017.17 1016.85 1016.53 1016.22 1015.92 1015.65 1015.40 1015.17 1014.94
1020.49 1020.89 1021.25 1021.54 1021.76 1021.90 1021.96 1021.96 1021.93 1021.87 1021.82 1021.77 1021.73 1021.69 1021.64 1021.57 1021.46 1021.31 1021.10 1020.85 1020.55 1020.23 1019.88 1019.53 1019.17 1018.80 1018.42 1018.04 1017.65 1017.25 1016.85 1016.45 1016.07 1015.71 1015.38 1015.07 1014.79 1014.52
1020.96 1021.38 1021.75 1022.06 1022.29 1022.43 1022.50 1022.50 1022.45 1022.38 1022.29 1022.20 1022.12 1022.05 1021.98 1021.89 1021.78 1021.63 1021.44 1021.21 1020.94 1020.63 1020.30 1019.94 1019.56 1019.17 1018.75 1018.31 1017.86 1017.40 1016.93 1016.47 1016.03 1015.61 1015.21 1014.84 1014.50 1014.17
1021.40 1021.80 1022.17 1022.48 1022.72 1022.88 1022.95 1022.96 1022.90 1022.81 1022.71 1022.59 1022.49 1022.39 1022.29 1022.19 1022.08 1021.94 1021.76 1021.55 1021.30 1021.01 1020.69 1020.33 1019.94 1019.53 1019.08 1018.61 1018.11 1017.60 1017.08 1016.57 1016.07 1015.58 1015.13 1014.70 1014.29 1013.90
1021.79 1022.17 1022.53 1022.83 1023.08 1023.24 1023.33 1023.34 1023.29 1023.20 1023.09 1022.97 1022.85 1022.73 1022.62 1022.51 1022.39 1022.24 1022.07 1021.87 1021.63 1021.35 1021.03 1020.67 1020.28 1019.85 1019.39 1018.89 1018.36 1017.81 1017.26 1016.70 1016.15 1015.61 1015.10 1014.61 1014.13 1013.68
1022.17 1022.51 1022.84 1023.13 1023.37 1023.54 1023.64 1023.67 1023.64 1023.57 1023.47 1023.35 1023.23 1023.11 1022.99 1022.86 1022.73 1022.57 1022.39 1022.18 1021.93 1021.64 1021.32 1020.95 1020.55 1020.10 1019.62 1019.11 1018.56 1017.99 1017.41 1016.81 1016.22 1015.64 1015.07 1014.52 1013.98 1013.46
1022.54 1022.84 1023.13 1023.40 1023.63 1023.81 1023.92 1023.97 1023.97 1023.93 1023.85 1023.75 1023.64 1023.52 1023.39 1023.25 1023.09 1022.91 1022.71 1022.47 1022.19 1021.88 1021.53 1021.14 1020.72 1020.26 1019.77 1019.24 1018.68 1018.10 1017.49 1016.87 1016.25 1015.62 1015.01 1014.40 1013.79 1013.20
1022.92 1023.18 1023.44 1023.69 1023.90 1024.08 1024.20 1024.28 1024.31 1024.30 1024.25 1024.17 1024.07 1023.95 1023.82 1023.65 1023.47 1023.25 1022.99 1022.71 1022.39 1022.03 1021.65 1021.23 1020.79 1020.31 1019.81 1019.27 1018.70 1018.10 1017.48 1016.84 1016.18 1015.52 1014.85 1014.19 1013.52 1012.86
1023.33 1023.55 1023.78 1024.00 1024.20 1024.37 1024.51 1024.60 1024.66 1024.67 1024.65 1024.60 1024.51 1024.39 1024.23 1024.04 1023.81 1023.54 1023.23 1022.89 1022.52 1022.11 1021.68 1021.23 1020.75 1020.25 1019.73 1019.18 1018.61 1018.00 1017.36 1016.70 1016.01 1015.30 1014.59 1013.87 1013.14 1012.42
1023.76 1023.95 1024.14 1024.34 1024.52 1024.69 1024.83 1024.93 1025.01 1025.04 1025.04 1025.00 1024.91 1024.78 1024.60 1024.37 1024.10 1023.77 1023.41 1023.00 1022.57 1022.10 1021.63 1021.13 1020.63 1020.11 1019.57 1019.01 1018.42 1017.79 1017.13 1016.44 1015.72 1014.97 1014.20 1013.43 1012.65 1011.88
1024.20 1024.36 1024.53 1024.70 1024.87 1025.02 1025.16 1025.27 1025.35 1025.39 1025.40 1025.35 1025.26 1025.11 1024.90 1024.63 1024.31 1023.93 1023.50 1023.03 1022.54 1022.03 1021.51 1020.98 1020.44 1019.90 1019.34 1018.76 1018.15 1017.50 1016.81 1016.09 1015.32 1014.53 1013.71 1012.89 1012.06 1011.25
1024.64 1024.78 1024.93 1025.07 1025.22 1025.35 1025.48 1025.58 1025.66 1025.70 1025.70 1025.65 1025.54 1025.37 1025.12 1024.81 1024.43 1023.99 1023.51 1022.99 1022.45 1021.90 1021.34 1020.78 1020.22 1019.65 1019.07 1018.47 1017.83 1017.16 1016.44 1015.67 1014.86 1014.02 1013.15 1012.28 1011.41 1010.56
1025.08 1025.20 1025.31 1025.43 1025.56 1025.67 1025.78 1025.87 1025.94 1025.97 1025.96 1025.89 1025.75 1025.54 1025.25 1024.89 1024.47 1023.98 1023.46 1022.89 1022.31 1021.72 1021.14 1020.55 1019.97 1019.38 1018.78 1018.15 1017.49 1016.78 1016.02 1015.22 1014.36 1013.48 1012.57 1011.66 1010.75 1009.87
1025.49 1025.58 1025.67 1025.77 1025.86 1025.96 1026.05 1026.12 1026.17 1026.18 1026.15 1026.05 1025.87 1025.63 1025.30 1024.90 1024.43 1023.90 1023.33 1022.74 1022.13 1021.51 1020.90 1020.30 1019.70 1019.09 1018.47 1017.82 1017.13 1016.39 1015.60 1014.76 1013.87 1012.95 1012.01 1011.07 1010.14 1009.24
1025.87 1025.93 1025.99 1026.05 1026.12 1026.19 1026.26 1026.32 1026.34 1026.33 1026.27 1026.13 1025.93 1025.64 1025.27 1024.82 1024.31 1023.75 1023.15 1022.52 1021.89 1021.26 1020.64 1020.02 1019.40 1018.78 1018.14 1017.47 1016.76 1016.00 1015.19 1014.33 1013.42 1012.49 1011.54 1010.58 1009.65 1008.74
1026.20 1026.22 1026.25 1026.28 1026.32 1026.37 1026.42 1026.45 1026.45 1026.41 1026.31 1026.15 1025.90 1025.57 1025.16 1024.67 1024.12 1023.53 1022.90 1022.25 1021.60 1020.96 1020.33 1019.70 1019.08 1018.45 1017.80 1017.12 1016.40 1015.63 1014.81 1013.95 1013.05 1012.12 1011.18 1010.24 1009.32 1008.42
Thickness
5717 5717 5716 5716 5716 5716 5716 5713 5706 5699 5700 5707 5712 5717 5718 5717 5716 5714 5712 5710 5707 5705 5703 5702 5700 5698 5697 5696 5695 5693 5692 5691 5690 5689 5689 5688 5687 5686
5713 5712 5712 5712 5712 5712 5711 5709 5707 5702 5696 5702 5706 5710 5712 5712 5710 5709 5707 5705 5703 5701 5699 5697 5696 5695 5693 5691 5690 5689 5688 5687 5686 5685 5684 5684 5684 5683
5708 5708 5707 5707 5706 5705 5705 5703 5701 5699 5694 5696 5700 5703 5704 5704 5703 5701 5699 5697 5695 5694 5693 5692 5690 5689 5687 5686 5685 5683 5682 5681 5680 5680 5679 5679 5678 5678
5702 5702 5701 5701 5699 5698 5697 5696 5695 5694 5691 5688 5690 5693 5694 5694 5693 5691 5690 5688 5687 5686 5685 5684 5682 5681 5680 5679 5677 5676 5675 5674 5674 5673 5673 5672 5672 5672
5696 5695 5694 5694 5691 5690 5689 5688 5687 5687 5685 5682 5680 5681 5682 5682 5681 5680 5680 5678 5677 5676 5675 5674 5673 5672 5671 5670 5668 5668 5667 5666 5665 5664 5664 5664 5663 5663
5689 5688 5687 5686 5684 5683 5681 5679 5678 5677 5675 5673 5671 5669 5668 5668 5667 5665 5664 5664 5664 5664 5662 5662 5661 5660 5660 5659 5658 5657 5656 5655 5655 5654 5654 5654 5653 5653
5680 5679 5678 5678 5677 5675 5673 5670 5669 5666 5663 5661 5658 5656 5653 5652 5650 5650 5648 5648 5649 5649 5649 5649 5648 5648 5647 5646 5645 5644 5643 5642 5642 5642 5642 5642 5642 5642
5670 5668 5667 5666 5666 5664 5663 5661 5659 5655 5651 5648 5644 5641 5639 5638 5637 5636 5633 5632 5631 5634 5632 5633 5633 5632 5631 5630 5629 5628 5628 5628 5627 5627 5628 5628 5628 5629
5660 5658 5657 5654 5653 5651 5649 5648 5645 5643 5640 5636 5631 5629 5627 5626 5624 5622 5619 5616 5615 5617 5616 5616 5616 5614 5614 5614 5612 5612 5611 5611 5611 5611 5612 5613 5613 5614
5648 5645 5642 5640 5639 5638 5636 5633 5630 5628 5626 5623 5619 5617 5615 5614 5612 5608 5605 5602 5601 5600 5599 5597 5598 5597 5598 5596 5595 5594 5593 5592 5592 5593 5593 5595 5596 5598
5634 5632 5630 5627 5625 5625 5622 5618 5615 5613 5612 5609 5606 5603 5601 5599 5597 5594 5589 5585 5582 5581 5580 5577 5577 5578 5579 5578 5576 5574 5572 5571 5572 5572 5573 5575 5576 5578
5620 5618 5616 5614 5612 5610 5606 5602 5598 5595 5594 5593 5590 5587 5584 5581 5578 5575 5570 5565 5561 5559 5559 5556 5555 5554 5556 5558 5555 5552 5550 5550 5551 5552 5553 5555 5556 5558
5607 5604 5602 5600 5598 5595 5591 5587 5582 5580 5576 5573 5570 5567 5564 5561 5558 5554 5550 5546 5541 5538 5538 5535 5533 5530 5528 5532 5534 5532 5529 5530 5531 5532 5533 5535 5536 5538
5594 5590 5587 5585 5583 5579 5575 5571 5568 5564 5559 5554 5550 5546 5542 5539 5537 5534 5530 5526 5523 5519 5517 5514 5511 5508 5506 5508 5511 5512 5511 5510 5511 5513 5515 5516 5518 5520
5580 5577 5573 5570 5567 5562 5558 5554 5549 5544 5539 5534 5529 5525 5521 5519 5516 5514 5511 5507 5504 5500 5497 5494 5491 5489 5486 5486 5489 5491 5492 5494 5495 5495 5496 5498 5500 5503
5565 5562 5558 5554 5549 5544 5539 5535 5530 5524 5519 5513 5509 5505 5503 5499 5496 5493 5489 5486 5483 5480 5478 5476 5474 5472 5470 5470 5470 5473 5474 5475 5478 5478 5480 5483 5486 5488
5550 5545 5540 5534 5528 5523 5519 5514 5509 5505 5499 5494 5489 5485 5482 5478 5475 5472 5469 5466 5462 5460 5460 5460 5459 5458 5457 5456 5457 5458 5459 5460 5462 5465 5467 5470 5474 5475
5534 5525 5519 5514 5508 5502 5497 5493 5488 5484 5479 5474 5469 5465 5462 5459 5456 5453 5451 5448 5446 5445 5444 5445 5445 5445 5445 5446 5445 5446 5447 5448 5451 5453 5454 5457 5463 5467
5515 5506 5500 5494 5489 5483 5478 5473 5468 5464 5460 5455 5451 5447 5444 5441 5438 5436 5434 5432 5431 5430 5430 5430 5430 5430 5431 5435 5436 5435 5435 5439 5442 5444 5446 5448 5453 5459
5495 5488 5482 5476 5471 5465 5460 5455 5450 5445 5441 5437 5433 5430 5427 5424 5422 5420 5419 5418 5417 5417 5418 5418 5418 5418 5418 5421 5425 5428 5429 5430 5433 5436 5440 5443 5448 5453
5476 5471 5465 5460 5454 5448 5443 5438 5433 5429 5425 5421 5417 5414 5412 5410 5408 5407 5406 5406 5405 5406 5407 5408 5410 5411 5412 5413 5416 5421 5425 5426 5427 5429 5434 5437 5442 5448
5460 5454 5449 5444 5438 5433 5428 5423 5418 5414 5410 5406 5403 5401 5399 5397 5395 5395 5395 5395 5395 5396 5398 5401 5403 5404 5405 5406 5409 5414 5419 5423 5426 5428 5430 5432 5434 5439
5446 5440 5435 5430 5424 5419 5414 5409 5405 5400 5397 5393 5391 5389 5387 5386 5385 5385 5385 5386 5387 5389 5391 5393 5396 5397 5399 5401 5404 5408 5412 5417 5421 5425 5429 5432 5433 5436